This demonstration page uses our WeatherBlox Daily Observations layout. Learn more.

Left ArrowRight Arrow

38.83388, -104.82136

Hourly Observations for November 21, 2019

Temp ( °F °C ) Dew Point ( °F °C ) Humidity (%) Winds ( mph kmh ) Pressure ( in mb ) Visibility ( mi km ) Precip ( " mm )
12:34 am 00:34 Cloudy with Light Snow Showers 28 -2 27 -3 93 93 N 9 15 29.63 1004 4 6 0.00 0.00
12:39 am 00:39 Cloudy with Light Snow Showers 28 -2 27 -3 93 93 N 6 9 29.64 1004 3 5 0.00 0.00
12:42 am 00:42 Cloudy with Light Freezing Drizzle 28 -2 27 -3 93 93 N 7 11 29.64 1004 3 5 0.00 0.00
12:58 am 00:58 Cloudy with Light Freezing Drizzle 28 -2 27 -2.7 95 95 NNW 8 13 29.65 1004 2 2 0.00 0.00
1:13 am 01:13 Cloudy with Light Freezing Drizzle 28 -2 27 -3 93 93 NNW 7 11 29.65 1004 2 4 0.00 0.00
1:58 am 01:58 Cloudy with Light Freezing Drizzle 28 -2.4 27 -3 96 96 NNW 5 7 29.67 1005 3 5 0.00 0.00
2:00 am 02:00 Cloudy with Light Snow 28 -2 27 -3 93 93 Calm 29.67 1005 3 5 0.00 0.00
2:17 am 02:17 Cloudy with Light Freezing Drizzle 27 -3 27 -3 100 100 Calm 29.69 1005 2 3 0.00 0.00
2:22 am 02:22 Cloudy with Light Freezing Drizzle 27 -3 27 -3 100 100 N 5 7 29.68 1005 5 8 0.00 0.00
2:58 am 02:58 Cloudy with Light Freezing Drizzle 26 -3.2 26 -3.4 99 99 NNW 3 6 29.70 1006 7 11 0.00 0.00
3:28 am 03:28 Mostly Cloudy with Light Freezing Drizzle 27 -3 27 -3 100 100 N 6 9 29.70 1006 1 1 0.00 0.00
3:43 am 03:43 Cloudy with Light Freezing Drizzle 27 -3 27 -3 100 100 N 7 11 29.69 1005 3 4 0.00 0.00
3:44 am 03:44 Cloudy with Light Snow 27 -3 27 -3 100 100 N 7 11 29.69 1005 3 4 0.00 0.00
3:58 am 03:58 Cloudy with Light Snow 26 -3.2 26 -3.4 99 99 N 5 7 29.69 1005 3 4 0.00 0.00
4:07 am 04:07 Cloudy with Mist and Fog 27 -3 25 -4 93 93 NNW 7 11 29.69 1005 3 5 0.00 0.00
4:38 am 04:38 Cloudy with Light Snow Showers 27 -3 27 -3 100 100 N 5 7 29.70 1006 2 4 0.00 0.00
4:39 am 04:39 Cloudy with Mist and Fog 27 -3 27 -3 100 100 N 5 7 29.70 1006 2 4 0.00 0.00
4:44 am 04:44 Cloudy with Light Snow Showers 27 -3 25 -4 93 93 N 5 7 29.70 1006 2 4 0.00 0.00
4:58 am 04:58 Cloudy with Light Snow Showers 26 -3.4 26 -3.6 99 99 Calm 29.72 1006 3 5 0.00 0.00
5:11 am 05:11 Cloudy with Light Freezing Drizzle 27 -3 27 -3 100 100 Calm 29.73 1007 2 2 0.00 0.00
5:41 am 05:41 Mostly Cloudy with Light Freezing Drizzle 27 -3 27 -3 100 100 Calm 29.75 1007 1 2 0.00 0.00
5:58 am 05:58 Mostly Cloudy with Light Freezing Drizzle 26 -3.1 26 -3.2 99 99 Calm 29.75 1007 1 1 0.00 0.00
6:58 am 06:58 Mostly Cloudy with Light Freezing Rain 27 -2.6 27 -2.7 99 99 ESE 8 13 29.78 1008 1 2 0.02 0.51
7:58 am 07:58 Mostly Cloudy with Light Freezing Rain 26 -3.2 26 -3.6 97 97 SE 13 20 29.80 1009 1 2 0.00 0.00
8:58 am 08:58 Mostly Cloudy with Light Freezing Rain 26 -3.1 26 -3.5 97 97 Calm 29.80 1009 1 2 0.01 0.25
9:58 am 09:58 Mostly Cloudy with Light Freezing Rain 27 -3 26 -3.3 98 98 Calm 29.83 1010 0 0 0.02 0.51
10:05 am 10:05 Mostly Cloudy 27 -3 27 -3 100 100 Calm 29.83 1010 0 0 0.00 0.00
10:07 am 10:07 Mostly Cloudy with Light Snow 27 -3 27 -3 100 100 Calm 29.83 1010 0 0 0.00 0.00
10:24 am 10:24 Mostly Cloudy with Light Freezing Rain 27 -3 27 -3 100 100 Calm 29.83 1010 0 0 0.00 0.00
10:43 am 10:43 Mostly Cloudy 27 -3 27 -3 100 100 Calm 29.83 1010 0 0 0.00 0.00
10:58 am 10:58 Cloudy with Freezing Fog 25 -3.7 25 -4 98 98 Calm 29.85 1011 5 8 0.02 0.51
11:05 am 11:05 Cloudy with Light Freezing Rain 25 -4 25 -4 100 100 Calm 29.85 1011 7 11 0.00 0.00
11:35 am 11:35 Mostly Cloudy 25 -4 25 -4 100 100 Calm 29.84 1011 7 11 0.00 0.00
11:39 am 11:39 Mostly Cloudy with Light Snow 25 -4 25 -4 100 100 Calm 29.83 1010 5 8 0.00 0.00
11:58 am 11:58 Mostly Cloudy with Snow 25 -3.9 24 -4.2 98 98 Calm 29.84 1011 3 5 0.00 0.00
12:28 pm 12:28 Mostly Cloudy with Light Snow 25 -4 25 -4 100 100 Calm 29.81 1010 1 2 0.00 0.00
12:41 pm 12:41 Mostly Cloudy 25 -4 25 -4 100 100 Calm 29.82 1010 4 6 0.00 0.00
12:51 pm 12:51 Mostly Cloudy with Light Freezing Rain 25 -4 25 -4 100 100 Calm 29.82 1010 3 5 0.00 0.00
12:53 pm 12:53 Mostly Cloudy 25 -4 25 -4 100 100 Calm 29.82 1010 3 5 0.00 0.00
12:54 pm 12:54 Mostly Cloudy with Light Freezing Rain 25 -4 25 -4 100 100 Calm 29.82 1010 3 5 0.00 0.00
12:58 pm 12:58 Mostly Cloudy with Light Freezing Rain 25 -3.8 25 -4.1 98 98 Calm 29.81 1010 5 8 0.00 0.00
1:58 pm 13:58 Mostly Cloudy with Light Freezing Drizzle 25 -4.1 24 -4.4 98 98 Calm 29.80 1009 1 2 0.01 0.25
2:13 pm 14:13 Mostly Cloudy with Light Freezing Rain 25 -4 25 -4 100 100 Calm 29.81 1010 0 0 0.00 0.00
2:58 pm 14:58 Mostly Cloudy with Light Freezing Drizzle 25 -4 24 -4.3 98 98 Calm 29.83 1010 3 5 0.00 0.00
3:58 pm 15:58 Mostly Cloudy with Light Freezing Drizzle 25 -3.9 24 -4.2 98 98 Calm 29.84 1011 1 2 0.00 0.00
4:58 pm 16:58 Mostly Cloudy with Light Freezing Rain 25 -3.8 25 -4.1 98 98 Calm 29.84 1011 1 2 0.00 0.00
5:58 pm 17:58 Mostly Cloudy with Light Freezing Rain 25 -4.1 24 -4.4 98 98 Calm 29.84 1011 1 2 0.00 0.00
6:58 pm 18:58 Mostly Cloudy with Light Freezing Rain 25 -4.1 24 -4.4 98 98 Calm 29.84 1011 1 2 0.00 0.00
7:58 pm 19:58 Mostly Cloudy with Light Freezing Rain 24 -4.3 24 -4.7 97 97 Calm 29.87 1012 1 2 0.01 0.25
8:58 pm 20:58 Mostly Cloudy with Light Freezing Rain 24 -4.4 24 -4.7 98 98 Calm 29.87 1012 1 2 0.00 0.00
9:58 pm 21:58 Mostly Cloudy with Light Freezing Rain 24 -4.6 23 -5 97 97 Calm 29.87 1012 1 2 0.00 0.00
10:53 pm 22:53 Mostly Cloudy 23 -5 23 -5 100 100 Calm 29.87 1012 0 0 0.00 0.00
10:56 pm 22:56 Mostly Cloudy with Snow 23 -5 23 -5 100 100 Calm 29.87 1012 0 0 0.00 0.00
10:58 pm 22:58 Mostly Cloudy with Snow 23 -4.8 23 -5.2 97 97 Calm 29.87 1012 0 0 0.00 0.00
11:23 pm 23:23 Cloudy with Snow 23 -5 23 -5 100 100 Calm 29.87 1012 5 8 0.00 0.00
11:28 pm 23:28 Cloudy with Light Snow 23 -5 23 -5 100 100 Calm 29.87 1012 1 1 0.00 0.00
11:58 pm 23:58 Mostly Cloudy with Light Snow 23 -5 22 -5.4 97 97 Calm 29.86 1011 0 0 0.00 0.00

Powered by AerisWeather